Regional Weather Roundup
Issued by NWS Cleveland, OH

Home | Current Version | Previous Version | Graphics & Text | Print | Product List | Glossary On
Versions: 1 2 3 4 5 6 7 8 9 10 11 12 13 14 15 16 17 18 19 20 21 22 23 24 25 26 27 28 29 30 31 32 33 34 35 36 37 38 39 40 41 42 43 44 45 46 47 48 49 50
000
ASUS41 KCLE 301400
RWRCLE
OHIO REGIONAL WEATHER ROUNDUP
NATIONAL WEATHER SERVICE WILMINGTON, OH
1000 AM EDT TUE SEP 30 2014

NOTE: "FAIR" INDICATES FEW OR NO CLOUDS BELOW 12,000 FEET WITH NO
SIGNIFICANT WEATHER AND/OR OBSTRUCTIONS TO VISIBILITY.

OHZ001>008-015>018-024>027-034-035-043-044-301500-
   NORTHWEST OHIO

CITY           SKY/WX    TMP DP  RH WIND       PRES   REMARKS
DEFIANCE       CLOUDY    52  47  83 N7        29.99S
FINDLAY        CLOUDY    53  51  93 N14       29.95S FOG
TOLEDO EXPRESS CLOUDY    52  50  93 NW7       29.97S
TOLEDO METCALF CLOUDY    55  49  80 N9        29.97S
LIMA           CLOUDY    56  54  93 N9        29.96R
$$

OHZ009>014-019>023-028>033-038-089-301500-
   NORTHEAST OHIO

CITY           SKY/WX    TMP DP  RH WIND       PRES   REMARKS
CLE-HOPKINS    LGT RAIN  60  59  96 NW14      29.94R
CLE-LAKEFRONT  CLOUDY    62  59  90 N17       29.90S
CUY CO. ARPT   LGT RAIN  63  63 100 NW7       29.91R FOG
LORAIN-ELYRIA  CLOUDY    62  57  83 N8        29.93R HAZE
ASHTABULA      RAIN      59  58  96 SE7       29.92S FOG
AKRON-CANTON   RAIN      59  56  89 N3        29.94R VSB 1
WOOSTER        FOG       61  57  88 S3        29.92F VSB 1
MANSFIELD      CLOUDY    58  58 100 NW13      29.94R FOG
YOUNGSTOWN     CLOUDY    59  56  89 NE12      29.92R FOG
$$

OHZ042-051>053-060>062-070>072-077>081-301500-
  SOUTHWEST OHIO

CITY           SKY/WX    TMP DP  RH WIND       PRES   REMARKS
CINC-COVINGTON MOSUNNY   68  53  58 W5        29.95S
CINC-LUNKEN    SUNNY     62  57  83 CALM      29.95S
HAMILTON       SUNNY     63  54  72 CALM      29.96S
DAYTON         CLOUDY    61  58  90 N12       29.96S FOG
WRIGHT-PAT AFB NOT AVBL
DAYTON GENERAL SUNNY     63  54  72 NW7       29.95R
WILMINGTON     SUNNY     67  51  56 W3        29.94S
$$

OHZ036-037-039>041-045>050-054>059-063>069-073>076-082>088-301500-
  CENTRAL AND SOUTHEAST OHIO

CITY           SKY/WX    TMP DP  RH WIND       PRES   REMARKS
COLUMBUS       CLOUDY    62  52  69 CALM      29.93S
OSU AIRPORT    PTSUNNY   60  56  86 N3        29.94R
BOLTON FIELD   NOT AVBL
RICKENBACK AFB NOT AVBL
NEWARK         CLOUDY    59  54  83 CALM      29.93S
MARION         PTSUNNY   59  57  93 N3        29.92F FOG
LANCASTER      SUNNY     64  54  69 NW3       29.94S
ZANESVILLE     MOSUNNY   60  53  77 CALM      29.93R
NEW PHILLY     PTSUNNY   56  55  97 CALM      29.95R FOG
$$


USA.gov is the U.S. government's official web portal to all federal, state and local government web resources and services.